Location: Boiro
(42.6475°N, 8.8834°W)
Time: 03:20:17
(UTC+01:00)

SR - Pass Details

Date: 05 December 2021
Orbit: 582 x 872 km, 66.7° (Epoch: 21 January)

Event Time Altitude Azimuth Distance (km) Brightness Sun altitude
Rises 10:05:08 0° 322° (NW) 2,834 ? 10.2°
Reaches altitude 10° 10:07:25 10° 316° (NW) 1,948 ? 10.5°
Maximum altitude 10:11:31 42° 245° (WSW) 890 ? 11.0°
Drops below altitude 10° 10:15:52 10° 175° (S) 2,057 ? 11.6°
Sets 10:18:20 0° 168° (SSE) 3,012 ? 11.9°
